YAOGAN-40 02C

导读 | 豆包AI

YAOGAN-40 02C是中国于2025年5月11日发射的遥感卫星,归属于中国遥感卫星系列,该系列卫星主要服务于国土资源勘查、环境监测与保护、农作物估产、防灾减灾以及科学试验等领域,YAOGAN-40 02C延续系列使命,将进一步提升中国遥感观测能力,为相关领域应用提供稳定的数据支撑。

Basic Information
目录编号:
63920
目录名称:
YAOGAN-40 02C
国际标识:
2025-096C
轨道中心:
EARTH
卫星名称:
YAOGAN-40 02C
卫星全名:
YAOGAN-40 02C
卫星状态:
在轨 (已飞行354 天)
发射日期:
2025-05-11 UTC
国别 :
中国 (CN)
星等 :
--
Orbit Information
数据来源 国际轨道数据
星历时间: 2026-04-30T13:59:22+0800
8小时前
查看轨道信息
半长轴: 7229.173km
偏心率: 0.0001995
轨道倾角: 85.999°
近地点辐角 105.379°
升交点赤经 208.682°
平近点角 254.761°
近地点: 849.593km
远地点: 852.479km
周期: 101.951分钟
每日圈数: 14.124395
Detailed Information
使用方式:
暂无
2D Orbit Map
3D Orbit Map
Orbit Altitude Analysis Chart
Orbit Inclination Analysis Chart
Orbit Comprehensive Analysis Chart
View Comprehensive Chart